Overview Statistics Trail Chart Weather Telemetry Raw packets
 

This is the latest recevied weather packets stored in our database for station/object ac2ev. If no packets are shown the sender has not sent any weather packets the latest 10 day(s).

<< 86 87 88 89 90 91 92 >>
Time Temp. Humidity Pressure Rain* Wind** Luminosity Snow
1788018946 21.11° C 64% 1023.1 hPa 0 mm - - -
1788018645 21.11° C 62% 1023.2 hPa 0 mm - - -
1788018346 21.11° C 60% 1023.4 hPa 0 mm - - -
1788018044 21.11° C 63% 1023.3 hPa 0 mm - - -
1788017743 21.67° C 63% 1023.4 hPa 0 mm - - -
1788017444 21.67° C 62% 1023.5 hPa 0 mm - - -
1788017142 21.67° C 63% 1023.4 hPa 0 mm - - -
1788016842 21.11° C 62% 1023.3 hPa 0 mm - - -
1788016541 21.11° C 63% 1023.4 hPa 0 mm - - -
1788016241 21.11° C 64% 1023.5 hPa 0 mm - - -
1788015940 21.11° C 64% 1023.5 hPa 0 mm - - -
1788015639 21.11° C 64% 1023.4 hPa 0 mm - - -
1788015343 20.56° C 64% 1023.4 hPa 0 mm - - -
1788015035 20.56° C 64% 1023.4 hPa 0 mm - - -
1788014735 21.11° C 66% 1023.3 hPa 0 mm - - -
1788014435 21.11° C 64% 1023.3 hPa 0 mm - - -
1788014135 21.11° C 65% 1023.4 hPa 0 mm - - -
1788013835 20.56° C 68% 1023.3 hPa 0 mm - - -
1788013536 20.56° C 69% 1023.3 hPa 0 mm - - -
1788013235 20° C 70% 1023.3 hPa 0 mm - - -
1788012936 20° C 72% 1023.3 hPa 0 mm - - -
1788012632 19.44° C 72% 1023.3 hPa 0 mm - - -
1788012331 19.44° C 73% 1023.3 hPa 0 mm - - -
1788012031 19.44° C 73% 1023.4 hPa 0 mm - - -
1788011743 18.89° C 74% 1023.3 hPa 0 mm - - -

* Rain latest hour (hover to see other rain measurements)
** Current wind speed in m/s (hover to see current wind gust speed)